Welcome to the New NWS' Forecast!
Most changes are behind the scenes, but click here for differences you might notice.
Latest weather observations around

Emigrant Gap, Blue Canyon Nyack Airport (KBLU)

Using English Units (Switch to International System of Units)
Date/ Time (PDT) Wind (mph) Vis. (mi) Weather Sky Cond. Temp (°F) Rel. Humidity Wind Chill (°F) Heat Index (°F) Pressure Precip. (in)
Air Dwpt 6 hour Altimeter (inHg) Sea level (inHg) 1 hr 3 hr 6 hr
Max Min
Aug 14 00:52 Calm 10 Clear CLR 69 34     27%     30.15 29.83      
Aug 13 23:52 ENE 3 10 Clear CLR 69 37     31%     30.16 29.83      
Aug 13 22:52 E 3 10 Clear CLR 67 38     34%     30.16 29.85      
Aug 13 20:52 Calm 10 Clear CLR 68 37     32%     30.16 29.86      
Aug 13 19:52 Calm 10 Clear CLR 72 38     29%   70 30.16 29.85      
Aug 13 17:52 6 10 Clear CLR 78 32     19%   76 30.16 29.84      
Aug 13 16:52 W 8 10 Clear CLR 80 34     19%   79 30.17 29.84      
Aug 13 15:52 W 8 10 Clear CLR 81 37     21%   80 30.18 29.84      
Aug 13 14:52 SSW 10 10 Clear CLR 80 32     17%   79 30.19 29.86      
Aug 13 13:52 7 10 Clear CLR 80 36     20%   79 30.2 29.87      
Aug 13 12:52 SW 8 10 Clear CLR 79 37     22%   78 30.21 29.88      
Aug 13 11:52 S 11 10 Clear CLR 79 30     17%   77 30.22 29.89      
Aug 13 10:52 SSE 9 10 Clear CLR 77 33     20%   75   29.9      
Aug 13 09:52 SSE 8 10 Clear CLR 75 30     19%   73 30.21 29.91      
Aug 13 08:52 SE 5 10 Clear CLR 74 32     21%   72 30.21 29.9      
Aug 13 07:52 ESE 5 10 Clear CLR 71 30     22%   69 30.2 29.89      
Aug 13 06:52 ESE 5 10 Clear CLR 69 26     20%     30.2 29.88      
Aug 13 04:52 E 3 10 Clear CLR 68 31     25%     30.19 29.86      
Aug 13 03:52 ESE 3 10 Clear CLR 69 33     26%     30.19 29.85      
Aug 12 22:52 Calm 10 Clear CLR 68 35     30%     30.2 29.88      
Aug 12 20:52 ESE 3 10 Clear CLR 69 34     27%     30.19 29.88      
Aug 12 19:52 S 5 10 Clear CLR 72 34     25%   70 30.18 29.88      
Aug 12 18:52 SW 5 10 Clear CLR 76 33     21%   74 30.18 29.86      
Aug 12 14:52 S 9 10 Clear CLR 81 32     17%   80   29.86      
Aug 12 13:52 SW 9 10 Clear CLR 81 32     17%   80   29.87      
Aug 12 11:52 S 9 10 Clear CLR 80 25     13%   78 30.22 29.89      
Aug 12 10:52 SSE 6 10 Clear CLR 78 27     15%   76   29.89      
Notice The following observation data may not be complete
Aug 12 08:52 SE 7 10 Clear CLR   29      %     30.22 29.91      
Aug 12 06:52 ESE 3 10 Clear CLR 70 34     26%     30.21 29.88      
Aug 12 05:52 ESE 5 10 Clear CLR 69 36     30%     30.2 29.86      
Notice The following observation data may not be complete
Aug 12 04:52 ESE 5 10 Clear CLR   35      %       29.85      
Notice The following observation data may not be complete
Aug 12 03:52 ESE 3 10 Clear CLR   34      %     30.19 29.85      
Notice The following observation data may not be complete
Aug 12 02:52 SE 3 10 Clear CLR   36      %     30.2 29.84      
Notice The following observation data may not be complete
Aug 12 01:52 Calm 10 Clear CLR   36      %     30.2 29.85      
Aug 12 00:52 Calm 10 Clear CLR 69 38     32%     30.2 29.87      
Aug 11 23:52 Calm 10 Clear CLR 70 39     32%       29.87      
Aug 11 22:52 Calm 10 Clear CLR 71 40     32%   69 30.21 29.88      
Aug 11 20:52 Calm 10 Clear CLR 71 40     32%   69   29.91      
Aug 11 16:52 WNW 7 10 Clear CLR 83 31     15%   80 30.22 29.88      
Aug 11 14:52 7 9 Clear CLR 82 37     20%   80 30.25 29.89      
Aug 11 13:52 WSW 8 8 Clear CLR 81 36     20%   80 30.26 29.91      
Aug 11 12:52 SSW 6 6 Haze CLR 80 36     20%   79 30.27 29.92      
Aug 11 10:52 S 8 10 Clear CLR 78 32     19%   76 30.27 29.94      
Aug 11 08:52 E 3 5 Haze CLR 75 37     25%   73 30.26 29.94      
Aug 11 07:52 Calm 6 Haze CLR 72 37     28%   70 30.26 29.93      
Aug 11 06:52 Calm 7 Clear CLR 70 36     29%     30.25 29.91      
Aug 11 05:52 E 3 7 Clear CLR 69 39     33%     30.24 29.9      
Aug 11 03:52 Calm 8 Clear CLR 69 37     31%     30.23 29.88      
Aug 11 02:52 Calm 8 Clear CLR 72 31     22%   70 30.23 29.86      
Aug 11 00:52 NE 3 9 Clear CLR 72 33     24%   70 30.25 29.88      
Aug 10 23:52 NNW 5 8 Clear CLR 75 37     25%   73 30.25 29.88      
May 14 21:52 Calm 10 Clear CLR 51 47     86%     30.05 29.89      
May 14 10:52 7 10 Mostly Clear FEW055 60 34     37%     30.06 29.89      
May 13 09:52 Calm 10 Clear   54 39     57%     30.06 29.92      
May 12 18:52 5 10 Cloudy OVC090 53 38     56%     29.98 29.86      
May 11 21:52 7 10 Clear CLR 47 25     42% 44   29.92 29.79      
May 11 17:52 NNE 10 10 Clear CLR 56 20     24%     29.91 29.75      
May 11 15:52 NNE 10 10 Clear CLR 57 17     21%     29.91 29.75      
Jun 12 01:33 SSE 3 1.25 Light Snow and Fog/Mist BKN003 OVC007 33 33     100% 30   29.96   0    
Jun 12 01:18 SSW 3 2.5 Light Snow and Fog/Mist OVC004 33 33     100% 30   29.96   0    
Jun 11 17:08 6 5 Fog/Mist SCT004 BKN013 OVC034 36 35     96% 31   29.93   0    
Jun 11 15:52 W 7 2.5 Light Snow and Fog/Mist FEW010 BKN018 OVC049 36 34     92% 30   29.94 29.91 0    
Jun 11 13:02   10 Mostly Cloudy FEW022 SCT029 BKN050 42 32     67%     29.9        
Jun 11 12:52 SSW 10 10 Clear   42 31     64% 36   29.9 29.84      
Jun 11 09:59 5 10 Cloudy FEW019 BKN028 OVC035 40 33     76% 37            
Jun 11 09:42 S 9 10 Mostly Cloudy FEW020 BKN028 BKN034 39 33     79% 33   29.87        
Jun 11 04:52 5 2.5 Fog/Mist OVC002 38 38     100% 34     29.78      
Jun 11 02:52 S 6 0.75 Fog/Mist VV002 39 39     100% 35     29.79      
Jun 11 00:43 S 7 1.25 Fog/Mist OVC002 40 40     100% 35   29.91        
Jun 10 22:52 S 9 10 Cloudy OVC005 42 41     96% 37   29.93 29.83      
Jun 10 03:00 SSE 11 3 Fog/Mist BKN002 OVC009 44 44     100% 38   29.95        
Jun 10 02:14 SSE 10 1.25 Fog/Mist OVC002 44 44     100% 39   29.97        
Jun 09 21:27 S 9 1.75 Fog/Mist BKN002 BKN006 OVC016 47 46     97% 43   29.99        
Jun 09 18:52 SSW 11 10 Cloudy SCT007 BKN010 OVC017 49 47     93% 44     29.87      
Jun 09 13:52 SW 10 0.25 Clear   48 48     100% 43   30.01 29.91 0    
Jun 09 10:52 SSW 9 0.25 Fog VV002 47 47     100% 43   30 29.91     0
Jun 09 06:35 S 9 0.25 Fog VV002 46 46     100% 41   30.01        
Jun 09 05:52 S 7 0.25 Fog VV001 46 46     100% 42   30.01 29.91      
Jun 09 03:52 S 6 0.25 Fog VV002 46 46     100% 43   30.03 29.94      
Jun 09 02:52 S 7 0.5 Fog VV002 46 46     100% 42   30.04 29.95      
Notice The following observation data may not be complete
Jun 09 02:08   1.5 Fog/Mist OVC002          %              
Jun 09 01:48 SSW 5 0.75 Fog/Mist VV002 46 46     100% 44   30.05        
Jun 08 18:52 S 7 0.25 Fog VV002 48 48     100% 45   30.09 29.99      
Notice The following observation data may not be complete
Jun 08 17:42   1.25 Fog/Mist OVC002          %              
Jun 08 11:52   1.75 Light Rain and Fog/Mist SCT006 BKN010 OVC021 43 42     97%     30.12 30.02 0    
Notice The following observation data may not be complete
Jun 08 11:20   2 Rain and Fog/Mist FEW005 SCT012 OVC021          %         0    
Jun 07 23:52 SE 7 10 Clear CLR 51 39     63%       29.83      
Jun 07 22:52 SE 7 10 Clear CLR 51 40     65%     30.05 29.85      
Jun 07 20:52 S 8 10 Clear CLR 57 38     49%     30.04 29.82      
Jun 05 21:52 Calm 10 Clear CLR 59 32     36%       29.87